This demonstration page uses our WeatherBlox Daily Observations layout. Learn more.

Left ArrowRight Arrow

40.92945, -100.16068

Hourly Observations for June 22, 2020

Temp ( °F °C ) Dew Point ( °F °C ) Humidity (%) Winds ( mph kmh ) Pressure ( in mb ) Visibility ( mi km ) Precip ( " mm )
12:15 am 00:15 Mostly Cloudy 65 18.2 62 16.7 91 91 NW 9 15 29.86 1011 10 16.0934 0 0
12:35 am 00:35 Mostly Cloudy with Light Rain 66 18.8 63 17.3 91 91 NW 9 15 29.86 1011 10 16.0934 0 0
12:55 am 00:55 Mostly Cloudy with Light Rain 66 18.8 64 17.7 93 93 NNW 8 13 29.84 1011 10 16.0934 0 0
1:15 am 01:15 Partly Cloudy 65 18.5 63 17.4 93 93 NNW 5 7 29.85 1011 10 16.0934 0 0
1:35 am 01:35 Partly Cloudy 64 18 63 17.2 95 95 W 3 6 29.85 1011 10 16.0934 0 0
1:55 am 01:55 Partly Cloudy 64 17.7 62 16.8 95 95 W 3 6 29.85 1011 10 16.0934 0 0
2:15 am 02:15 Clear 62 16.7 61 16.1 96 96 Calm 29.85 1011 10 16.0934 0 0
2:35 am 02:35 Clear 62 16.5 61 16 97 97 W 3 6 29.84 1011 10 16.0934 0 0
2:55 am 02:55 Clear 60 15.5 59 15.1 97 97 NW 5 7 29.84 1011 7 11.26538 0 0
3:15 am 03:15 Clear 60 15.5 59 15.2 98 98 NNW 6 9 29.84 1011 7 11.26538 0 0
3:35 am 03:35 Partly Cloudy 60 15.8 60 15.4 97 97 NW 5 7 29.84 1010 10 16.0934 0 0
3:55 am 03:55 Partly Cloudy 60 15.6 59 15.1 97 97 W 5 7 29.84 1011 10 16.0934 0 0
4:15 am 04:15 Clear 60 15.5 59 15.1 97 97 W 6 9 29.84 1011 7 11.26538 0 0
4:35 am 04:35 Clear 60 15.8 60 15.3 97 97 WNW 6 9 29.84 1010 10 16.0934 0 0
4:55 am 04:55 Clear 60 15.6 59 15.1 97 97 W 7 11 29.85 1011 10 16.0934 0 0
5:15 am 05:15 Clear 60 15.7 59 15.1 96 96 WNW 7 11 29.85 1011 10 16.0934 0 0
5:35 am 05:35 Clear 60 15.5 59 14.9 96 96 WNW 7 11 29.86 1011 10 16.0934 0 0
5:55 am 05:55 Clear 59 15.2 58 14.6 96 96 Calm 29.87 1012 10 16.0934 0.01 0.254
6:15 am 06:15 Sunny 58 14.2 56 13.6 96 96 NW 6 9 29.89 1012 10 16.0934 0 0
6:35 am 06:35 Sunny 57 14 56 13.6 97 97 NNW 5 7 29.89 1012 7 11.26538 0 0
6:55 am 06:55 Sunny 58 14.6 57 14.1 97 97 NNW 5 7 29.9 1013 10 16.0934 0 0
7:15 am 07:15 Sunny 59 15.1 58 14.6 97 97 Calm 29.91 1013 10 16.0934 0 0
7:35 am 07:35 Sunny 61 15.9 59 15 94 94 Calm 29.9 1012 10 16.0934 0 0
7:55 am 07:55 Sunny 62 16.6 60 15.4 93 93 NNE 3 6 29.9 1013 10 16.0934 0 0
8:15 am 08:15 Sunny 64 17.5 60 15.6 89 89 ENE 5 7 29.9 1013 10 16.0934 0 0
8:35 am 08:35 Partly Cloudy 66 18.7 59 15 79 79 Calm 29.9 1013 10 16.0934 0 0
8:55 am 08:55 Partly Cloudy 67 19.7 59 15 74 74 NNE 3 6 29.9 1013 10 16.0934 0 0
9:15 am 09:15 Sunny 69 20.4 59 15 71 71 ENE 5 7 29.9 1012 10 16.0934 0 0
9:35 am 09:35 Sunny 70 21 59 15.2 70 70 NE 6 9 29.9 1013 10 16.0934 0 0
9:55 am 09:55 Sunny 71 21.9 59 15 65 65 NE 3 6 29.91 1013 7 11.26538 0 0
10:15 am 10:15 Sunny 72 22.4 59 15.2 64 64 NE 3 6 29.9 1013 10 16.0934 0 0
10:35 am 10:35 Sunny 74 23.4 58 14.6 58 58 N 7 11 29.89 1012 10 16.0934 0 0
10:55 am 10:55 Sunny 75 24 59 15.1 58 58 NNE 6 9 29.89 1012 10 16.0934 0 0
11:15 am 11:15 Sunny 76 24.3 58 14.7 55 55 N 8 13 29.89 1012 10 16.0934 0 0
11:35 am 11:35 Partly Cloudy 78 25.3 59 14.9 53 53 NNE 5 7 29.88 1012 10 16.0934 0 0
11:55 am 11:55 Partly Cloudy 78 25.3 59 14.9 53 53 N 7 11 29.88 1012 10 16.0934 0 0
12:15 pm 12:15 Partly Cloudy 79 26 59 14.9 50 50 N 8 13 29.87 1012 10 16.0934 0 0
12:35 pm 12:35 Partly Cloudy 79 26.1 59 15.2 51 51 NNE 7 11 29.87 1012 10 16.0934 0 0
12:55 pm 12:55 Partly Cloudy 80 26.4 58 14.5 48 48 N 8 13 29.87 1011 7 11.26538 0 0
1:15 pm 13:15 Sunny 80 26.6 57 14 46 46 NW 8 13 29.86 1011 10 16.0934 0 0
1:35 pm 13:35 Partly Cloudy 79 26.2 57 13.8 46 46 NNW 5 7 29.86 1011 10 16.0934 0 0
1:55 pm 13:55 Mostly Cloudy 82 27.5 57 13.8 43 43 NW 9 15 29.84 1010 10 16.0934 0 0
2:15 pm 14:15 Partly Cloudy 82 28 57 13.8 42 42 NW 12 19 29.84 1010 10 16.0934 0 0
2:35 pm 14:35 Sunny 84 28.9 56 13.3 38 38 NW 9 15 29.82 1010 10 16.0934 0 0
2:55 pm 14:55 Partly Cloudy 84 28.8 55 12.8 37 37 NNW 8 13 29.82 1010 10 16.0934 0 0
3:15 pm 15:15 Partly Cloudy 85 29.5 56 13.5 37 37 N 7 11 29.8 1009 10 16.0934 0 0
3:35 pm 15:35 Partly Cloudy 85 29.6 56 13.2 37 37 NW 10 17 29.8 1009 10 16.0934 0 0
3:55 pm 15:55 Partly Cloudy 86 29.8 54 12.4 34 34 NNW 14 22 29.8 1009 10 16.0934 0 0
4:15 pm 16:15 Partly Cloudy 85 29.4 55 12.9 36 36 N 12 19 29.8 1009 10 16.0934 0 0
4:35 pm 16:35 Partly Cloudy 85 29.4 55 12.5 35 35 NNW 9 15 29.8 1009 10 16.0934 0 0
4:55 pm 16:55 Partly Cloudy 83 28.1 55 12.5 38 38 NNW 10 17 29.81 1010 10 16.0934 0 0
5:15 pm 17:15 Partly Cloudy 84 28.9 55 12.8 37 37 N 10 17 29.81 1009 10 16.0934 0 0
5:35 pm 17:35 Partly Cloudy 83 28.1 55 12.5 38 38 N 12 19 29.81 1010 10 16.0934 0 0
5:55 pm 17:55 Mostly Cloudy 82 27.5 55 13 41 41 N 16 26 29.82 1010 10 16.0934 0 0
6:15 pm 18:15 Partly Cloudy 78 25.5 54 12.3 44 44 N 20 31 29.85 1011 10 16.0934 0 0
6:35 pm 18:35 Partly Cloudy 73 22.9 56 13.5 56 56 N 17 28 29.88 1012 10 16.0934 0 0
6:55 pm 18:55 Cloudy 71 21.9 56 13.5 59 59 NW 15 24 29.93 1013 10 16.0934 0 0
7:15 pm 19:15 Cloudy 71 21.4 56 13.1 59 59 WNW 13 20 29.94 1014 10 16.0934 0 0
7:35 pm 19:35 Cloudy 70 21.3 57 14 63 63 N 10 17 29.92 1013 10 16.0934 0 0
7:55 pm 19:55 Partly Cloudy 72 22 57 14.1 61 61 N 15 24 29.92 1013 10 16.0934 0 0
8:15 pm 20:15 Sunny 71 21.7 59 14.9 65 65 NNE 14 22 29.94 1014 10 16.0934 0 0
8:35 pm 20:35 Sunny 69 20.6 58 14.5 68 68 NNE 14 22 29.95 1014 10 16.0934 0 0
8:55 pm 20:55 Sunny 67 19.4 60 15.4 78 78 NE 10 17 29.96 1014 10 16.0934 0 0
9:15 pm 21:15 Clear 65 18.3 60 15.3 83 83 NE 5 7 29.97 1015 10 16.0934 0 0
9:35 pm 21:35 Clear 64 17.7 59 15 84 84 Calm 29.97 1015 10 16.0934 0 0
9:55 pm 21:55 Clear 61 16 58 14.6 91 91 N 6 9 30 1016 10 16.0934 0 0
10:15 pm 22:15 Clear 60 15.4 58 14.2 93 93 Calm 30.01 1016 10 16.0934 0 0
10:35 pm 22:35 Clear 59 15.2 57 13.8 91 91 Calm 30.02 1017 10 16.0934 0 0
10:55 pm 22:55 Clear 59 15.2 57 13.9 92 92 Calm 30.03 1017 10 16.0934 0 0
11:15 pm 23:15 Clear 59 15.1 57 13.8 92 92 Calm 30.04 1017 10 16.0934 0 0
11:35 pm 23:35 Clear 57 13.8 55 13 95 95 NW 5 7 30.04 1017 10 16.0934 0 0
11:55 pm 23:55 Clear 57 13.8 56 13.1 96 96 NW 5 7 30.04 1017 10 16.0934 0 0

Powered by AerisWeather